This is the latest recevied weather packets stored in our database for station/object PD3EM. If no packets are shown the sender has not sent any weather packets the latest 10 day(s).
| Time | Temp. | Humidity | Pressure | Rain* | Wind** | Luminosity | Snow |
|---|---|---|---|---|---|---|---|
| 1777323840 | 10.56° C | 80% | 1023.7 hPa | 0 mm | - | 0 W/m² | - |
| 1777323198 | 10.56° C | 80% | 1023.5 hPa | 0 mm | - | 0 W/m² | - |
| 1777320794 | 10.56° C | 79% | 1023.5 hPa | 0 mm | - | 0 W/m² | - |
| 1777316585 | 11.11° C | 74% | 1023.4 hPa | 0 mm | - | 1 W/m² | - |
| 1777309371 | 15° C | 58% | 1023.4 hPa | 0 mm | - | 108 W/m² | - |
| 1777308769 | 15.56° C | 56% | 1023.2 hPa | 0 mm | - | 112 W/m² | - |
| 1777304561 | 16.67° C | 58% | 1023.7 hPa | 0 mm | - | 352 W/m² | - |
| 1777301555 | 16.67° C | 55% | 1024.4 hPa | 0 mm | - | 243 W/m² | - |
| 1777299150 | 16.67° C | 52% | 1024.5 hPa | 0 mm | - | 335 W/m² | - |
| 1777296745 | 18.33° C | 48% | 1025 hPa | 0 mm | - | 435 W/m² | - |
| 1777293739 | 18.33° C | 47% | 1025.3 hPa | 0 mm | - | 549 W/m² | - |
| 1777292577 | 17.78° C | 48% | 1025.4 hPa | 0 mm | - | 598 W/m² | - |
| 1777291935 | 18.33° C | 48% | 1025.7 hPa | 0 mm | - | 525 W/m² | - |
| 1777290733 | 17.78° C | 50% | 1025.7 hPa | 0 mm | - | 431 W/m² | - |
| 1777289571 | 18.33° C | 50% | 1025.8 hPa | 0 mm | - | 412 W/m² | - |
| 1777287727 | 17.22° C | 53% | 1025.7 hPa | 0 mm | - | 562 W/m² | - |
| 1777283579 | 16.11° C | 63% | 1026.4 hPa | 0 mm | - | 506 W/m² | - |
| 1777278789 | 12.78° C | 78% | 1026.6 hPa | 0 mm | - | 385 W/m² | - |
| 1777275182 | 9.44° C | 83% | 1026.3 hPa | 0 mm | - | 182 W/m² | - |
| 1777274561 | 8.89° C | 84% | 1026.6 hPa | 0 mm | - | 195 W/m² | - |
| 1777270352 | 6.67° C | 88% | 1026.8 hPa | 0 mm | - | 75 W/m² | - |
| 1777264340 | 4.44° C | 89% | 1026.3 hPa | 0 mm | - | 5 W/m² | - |
| 1777261334 | 5° C | 88% | 1026.1 hPa | 0 mm | - | 0 W/m² | - |
| 1777260132 | 5° C | 88% | 1026 hPa | 0 mm | - | 0 W/m² | - |
| 1777257126 | 5.56° C | 86% | 1026.1 hPa | 0 mm | - | 0 W/m² | - |
* Rain latest hour (hover to see other rain measurements)
** Current wind speed in m/s (hover to see current wind gust speed)